Time,TemperatureF,DewpointF,PressureIn,WindDirection,WindDirectionDegrees,WindSpeedMPH,WindSpeedGustMPH,Humidity,HourlyPrecipIn,Conditions,Clouds,dailyrainin,SoftwareType,DateUTC
2013-08-02 00:02:00,55.0,46.0,-100.00,North,-999,-999.0,-999.0,70,-99.99,,,-99.99,,2013-08-02 06:02:00,
2013-08-02 00:12:00,55.0,46.0,-100.00,North,-999,-999.0,-999.0,70,-99.99,,,-99.99,,2013-08-02 06:12:00,
2013-08-02 00:22:00,57.0,44.0,-100.00,North,-999,-999.0,-999.0,62,-99.99,,,-99.99,,2013-08-02 06:22:00,
2013-08-02 00:33:00,57.0,44.0,-100.00,North,-999,-999.0,-999.0,62,-99.99,,,-99.99,,2013-08-02 06:33:00,
2013-08-02 00:43:00,57.0,43.0,-100.00,North,-999,-999.0,-999.0,59,-99.99,,,-99.99,,2013-08-02 06:43:00,
2013-08-02 00:52:00,57.0,43.0,-100.00,North,-999,-999.0,-999.0,59,-99.99,,,-99.99,,2013-08-02 06:52:00,
2013-08-02 01:02:00,59.0,40.0,-100.00,North,-999,-999.0,-999.0,50,-99.99,,,-99.99,,2013-08-02 07:02:00,
2013-08-02 01:12:00,59.0,40.0,-100.00,North,-999,-999.0,-999.0,50,-99.99,,,-99.99,,2013-08-02 07:12:00,
2013-08-02 01:22:00,59.0,40.0,-100.00,North,-999,-999.0,-999.0,48,-99.99,,,-99.99,,2013-08-02 07:22:00,
2013-08-02 01:33:00,59.0,40.0,-100.00,North,-999,-999.0,-999.0,48,-99.99,,,-99.99,,2013-08-02 07:33:00,
2013-08-02 01:44:00,59.0,41.0,-100.00,North,-999,-999.0,-999.0,51,-99.99,,,-99.99,,2013-08-02 07:44:00,
2013-08-02 01:53:00,59.0,41.0,-100.00,North,-999,-999.0,-999.0,51,-99.99,,,-99.99,,2013-08-02 07:53:00,
2013-08-02 02:02:00,58.0,41.0,-100.00,North,-999,-999.0,-999.0,54,-99.99,,,-99.99,,2013-08-02 08:02:00,
2013-08-02 02:12:00,57.0,42.0,-100.00,North,-999,-999.0,-999.0,56,-99.99,,,-99.99,,2013-08-02 08:12:00,
2013-08-02 02:22:00,57.0,42.0,-100.00,North,-999,-999.0,-999.0,56,-99.99,,,-99.99,,2013-08-02 08:22:00,
2013-08-02 02:33:00,57.0,42.0,-100.00,North,-999,-999.0,-999.0,56,-99.99,,,-99.99,,2013-08-02 08:33:00,
2013-08-02 02:43:00,56.0,41.0,-100.00,North,-999,-999.0,-999.0,57,-99.99,,,-99.99,,2013-08-02 08:43:00,
2013-08-02 02:54:00,56.0,41.0,-100.00,North,-999,-999.0,-999.0,57,-99.99,,,-99.99,,2013-08-02 08:54:00,
2013-08-02 03:02:00,55.0,40.0,-100.00,North,-999,-999.0,-999.0,56,-99.99,,,-99.99,,2013-08-02 09:02:00,
2013-08-02 03:12:00,55.0,40.0,-100.00,North,-999,-999.0,-999.0,56,-99.99,,,-99.99,,2013-08-02 09:12:00,
2013-08-02 03:22:00,55.0,38.0,-100.00,North,-999,-999.0,-999.0,53,-99.99,,,-99.99,,2013-08-02 09:22:00,
2013-08-02 03:33:00,55.0,38.0,-100.00,North,-999,-999.0,-999.0,53,-99.99,,,-99.99,,2013-08-02 09:33:00,
2013-08-02 03:43:00,54.0,35.0,-100.00,North,-999,-999.0,-999.0,48,-99.99,,,-99.99,,2013-08-02 09:43:00,
2013-08-02 03:53:00,54.0,35.0,-100.00,North,-999,-999.0,-999.0,48,-99.99,,,-99.99,,2013-08-02 09:53:00,
2013-08-02 04:02:00,54.0,34.0,-100.00,North,-999,-999.0,-999.0,46,-99.99,,,-99.99,,2013-08-02 10:02:00,
2013-08-02 04:12:00,54.0,34.0,-100.00,North,-999,-999.0,-999.0,46,-99.99,,,-99.99,,2013-08-02 10:12:00,
2013-08-02 04:23:00,55.0,33.0,-100.00,North,-999,-999.0,-999.0,44,-99.99,,,-99.99,,2013-08-02 10:23:00,
2013-08-02 04:33:00,55.0,33.0,-100.00,North,-999,-999.0,-999.0,44,-99.99,,,-99.99,,2013-08-02 10:33:00,
2013-08-02 04:43:00,55.0,31.0,-100.00,North,-999,-999.0,-999.0,39,-99.99,,,-99.99,,2013-08-02 10:43:00,
2013-08-02 04:52:00,55.0,31.0,-100.00,North,-999,-999.0,-999.0,39,-99.99,,,-99.99,,2013-08-02 10:52:00,
2013-08-02 05:02:00,55.0,30.0,-100.00,North,-999,-999.0,-999.0,37,-99.99,,,-99.99,,2013-08-02 11:02:00,
2013-08-02 05:12:00,55.0,29.0,-100.00,North,-999,-999.0,-999.0,36,-99.99,,,-99.99,,2013-08-02 11:12:00,
2013-08-02 05:22:00,55.0,29.0,-100.00,North,-999,-999.0,-999.0,36,-99.99,,,-99.99,,2013-08-02 11:22:00,
2013-08-02 05:32:00,55.0,29.0,-100.00,North,-999,-999.0,-999.0,36,-99.99,,,-99.99,,2013-08-02 11:32:00,
2013-08-02 05:42:00,55.0,28.0,-100.00,North,-999,-999.0,-999.0,35,-99.99,,,-99.99,,2013-08-02 11:42:00,
2013-08-02 05:52:00,55.0,28.0,-100.00,North,-999,-999.0,-999.0,35,-99.99,,,-99.99,,2013-08-02 11:52:00,
2013-08-02 06:02:00,54.0,27.0,-100.00,North,-999,-999.0,-999.0,35,-99.99,,,-99.99,,2013-08-02 12:02:00,
2013-08-02 06:12:00,53.0,29.0,-100.00,North,-999,-999.0,-999.0,39,-99.99,,,-99.99,,2013-08-02 12:12:00,
2013-08-02 06:22:00,53.0,29.0,-100.00,North,-999,-999.0,-999.0,39,-99.99,,,-99.99,,2013-08-02 12:22:00,
2013-08-02 06:32:00,53.0,29.0,-100.00,North,-999,-999.0,-999.0,39,-99.99,,,-99.99,,2013-08-02 12:32:00,
2013-08-02 06:42:00,53.0,28.0,-100.00,North,-999,-999.0,-999.0,36,-99.99,,,-99.99,,2013-08-02 12:42:00,
2013-08-02 06:52:00,53.0,28.0,-100.00,North,-999,-999.0,-999.0,36,-99.99,,,-99.99,,2013-08-02 12:52:00,
2013-08-02 07:02:00,53.0,30.0,-100.00,North,-999,-999.0,-999.0,40,-99.99,,,-99.99,,2013-08-02 13:02:00,
2013-08-02 07:12:00,53.0,30.0,-100.00,North,-999,-999.0,-999.0,40,-99.99,,,-99.99,,2013-08-02 13:12:00,
2013-08-02 07:22:00,53.0,34.0,-100.00,North,-999,-999.0,-999.0,48,-99.99,,,-99.99,,2013-08-02 13:22:00,
2013-08-02 07:33:00,53.0,34.0,-100.00,North,-999,-999.0,-999.0,48,-99.99,,,-99.99,,2013-08-02 13:33:00,
2013-08-02 07:42:00,53.0,33.0,-100.00,North,-999,-999.0,-999.0,46,-99.99,,,-99.99,,2013-08-02 13:42:00,
2013-08-02 07:52:00,53.0,33.0,-100.00,North,-999,-999.0,-999.0,46,-99.99,,,-99.99,,2013-08-02 13:52:00,
2013-08-02 08:02:00,54.0,32.0,-100.00,North,-999,-999.0,-999.0,43,-99.99,,,-99.99,,2013-08-02 14:02:00,
2013-08-02 08:12:00,54.0,34.0,-100.00,North,-999,-999.0,-999.0,46,-99.99,,,-99.99,,2013-08-02 14:12:00,
2013-08-02 08:22:00,54.0,34.0,-100.00,North,-999,-999.0,-999.0,46,-99.99,,,-99.99,,2013-08-02 14:22:00,
2013-08-02 08:32:00,54.0,34.0,-100.00,North,-999,-999.0,-999.0,46,-99.99,,,-99.99,,2013-08-02 14:32:00,
2013-08-02 08:43:00,54.0,40.0,-100.00,North,-999,-999.0,-999.0,57,-99.99,,,-99.99,,2013-08-02 14:43:00,
2013-08-02 08:53:00,54.0,40.0,-100.00,North,-999,-999.0,-999.0,57,-99.99,,,-99.99,,2013-08-02 14:53:00,
2013-08-02 09:03:00,55.0,40.0,-100.00,North,-999,-999.0,-999.0,57,-99.99,,,-99.99,,2013-08-02 15:03:00,
2013-08-02 09:12:00,55.0,40.0,-100.00,North,-999,-999.0,-999.0,57,-99.99,,,-99.99,,2013-08-02 15:12:00,
2013-08-02 09:22:00,55.0,41.0,-100.00,North,-999,-999.0,-999.0,58,-99.99,,,-99.99,,2013-08-02 15:22:00,
2013-08-02 09:32:00,55.0,41.0,-100.00,North,-999,-999.0,-999.0,58,-99.99,,,-99.99,,2013-08-02 15:32:00,
2013-08-02 09:52:00,57.0,43.0,-100.00,North,-999,-999.0,-999.0,60,-99.99,,,-99.99,,2013-08-02 15:52:00,
2013-08-02 10:02:00,57.0,43.0,-100.00,North,-999,-999.0,-999.0,59,-99.99,,,-99.99,,2013-08-02 16:02:00,
2013-08-02 10:12:00,57.0,43.0,-100.00,North,-999,-999.0,-999.0,59,-99.99,,,-99.99,,2013-08-02 16:12:00,
2013-08-02 10:22:00,58.0,42.0,-100.00,North,-999,-999.0,-999.0,55,-99.99,,,-99.99,,2013-08-02 16:22:00,
2013-08-02 10:32:00,58.0,42.0,-100.00,North,-999,-999.0,-999.0,55,-99.99,,,-99.99,,2013-08-02 16:32:00,
2013-08-02 10:43:00,59.0,44.0,-100.00,North,-999,-999.0,-999.0,58,-99.99,,,-99.99,,2013-08-02 16:43:00,
2013-08-02 10:53:00,59.0,44.0,-100.00,North,-999,-999.0,-999.0,58,-99.99,,,-99.99,,2013-08-02 16:53:00,
2013-08-02 11:02:00,60.0,45.0,-100.00,North,-999,-999.0,-999.0,58,-99.99,,,-99.99,,2013-08-02 17:02:00,
2013-08-02 11:12:00,60.0,45.0,-100.00,North,-999,-999.0,-999.0,58,-99.99,,,-99.99,,2013-08-02 17:12:00,
2013-08-02 11:22:00,61.0,45.0,-100.00,North,-999,-999.0,-999.0,56,-99.99,,,-99.99,,2013-08-02 17:22:00,
2013-08-02 11:34:00,61.0,45.0,-100.00,North,-999,-999.0,-999.0,56,-99.99,,,-99.99,,2013-08-02 17:34:00,
2013-08-02 11:43:00,63.0,44.0,-100.00,North,-999,-999.0,-999.0,48,-99.99,,,-99.99,,2013-08-02 17:43:00,
2013-08-02 11:52:00,63.0,44.0,-100.00,North,-999,-999.0,-999.0,48,-99.99,,,-99.99,,2013-08-02 17:52:00,
2013-08-02 12:02:00,64.0,42.0,-100.00,North,-999,-999.0,-999.0,43,-99.99,,,-99.99,,2013-08-02 18:02:00,
2013-08-02 12:22:00,65.0,38.0,-100.00,North,-999,-999.0,-999.0,37,-99.99,,,-99.99,,2013-08-02 18:22:00,
2013-08-02 12:32:00,65.0,38.0,-100.00,North,-999,-999.0,-999.0,37,-99.99,,,-99.99,,2013-08-02 18:32:00,
2013-08-02 12:52:00,65.0,31.0,-100.00,North,-999,-999.0,-999.0,27,-99.99,,,-99.99,,2013-08-02 18:52:00,
2013-08-02 13:12:00,65.0,27.0,-100.00,North,-999,-999.0,-999.0,23,-99.99,,,-99.99,,2013-08-02 19:12:00,
2013-08-02 13:22:00,65.0,27.0,-100.00,North,-999,-999.0,-999.0,23,-99.99,,,-99.99,,2013-08-02 19:22:00,
2013-08-02 13:32:00,65.0,27.0,-100.00,North,-999,-999.0,-999.0,23,-99.99,,,-99.99,,2013-08-02 19:32:00,
2013-08-02 13:43:00,65.0,26.0,-100.00,North,-999,-999.0,-999.0,23,-99.99,,,-99.99,,2013-08-02 19:43:00,
2013-08-02 13:52:00,65.0,26.0,-100.00,North,-999,-999.0,-999.0,23,-99.99,,,-99.99,,2013-08-02 19:52:00,
2013-08-02 14:02:00,65.0,26.0,-100.00,North,-999,-999.0,-999.0,22,-99.99,,,-99.99,,2013-08-02 20:02:00,
2013-08-02 14:12:00,65.0,26.0,-100.00,North,-999,-999.0,-999.0,22,-99.99,,,-99.99,,2013-08-02 20:12:00,
2013-08-02 14:22:00,65.0,28.0,-100.00,North,-999,-999.0,-999.0,24,-99.99,,,-99.99,,2013-08-02 20:22:00,
2013-08-02 14:32:00,65.0,28.0,-100.00,North,-999,-999.0,-999.0,24,-99.99,,,-99.99,,2013-08-02 20:32:00,
2013-08-02 14:43:00,66.0,28.0,-100.00,North,-999,-999.0,-999.0,23,-99.99,,,-99.99,,2013-08-02 20:43:00,
2013-08-02 14:52:00,66.0,28.0,-100.00,North,-999,-999.0,-999.0,23,-99.99,,,-99.99,,2013-08-02 20:52:00,
2013-08-02 15:02:00,66.0,26.0,-100.00,North,-999,-999.0,-999.0,21,-99.99,,,-99.99,,2013-08-02 21:02:00,
2013-08-02 15:12:00,66.0,26.0,-100.00,North,-999,-999.0,-999.0,21,-99.99,,,-99.99,,2013-08-02 21:12:00,
2013-08-02 15:22:00,66.0,25.0,-100.00,North,-999,-999.0,-999.0,20,-99.99,,,-99.99,,2013-08-02 21:22:00,
2013-08-02 15:32:00,66.0,25.0,-100.00,North,-999,-999.0,-999.0,20,-99.99,,,-99.99,,2013-08-02 21:32:00,
2013-08-02 15:43:00,67.0,24.0,-100.00,North,-999,-999.0,-999.0,19,-99.99,,,-99.99,,2013-08-02 21:43:00,
2013-08-02 15:53:00,67.0,24.0,-100.00,North,-999,-999.0,-999.0,19,-99.99,,,-99.99,,2013-08-02 21:53:00,
2013-08-02 16:02:00,67.0,23.0,-100.00,North,-999,-999.0,-999.0,19,-99.99,,,-99.99,,2013-08-02 22:02:00,
2013-08-02 16:22:00,66.0,22.0,-100.00,North,-999,-999.0,-999.0,18,-99.99,,,-99.99,,2013-08-02 22:22:00,
2013-08-02 16:32:00,66.0,22.0,-100.00,North,-999,-999.0,-999.0,18,-99.99,,,-99.99,,2013-08-02 22:32:00,
2013-08-02 16:52:00,67.0,22.0,-100.00,North,-999,-999.0,-999.0,17,-99.99,,,-99.99,,2013-08-02 22:52:00,
2013-08-02 17:02:00,67.0,22.0,-100.00,North,-999,-999.0,-999.0,17,-99.99,,,-99.99,,2013-08-02 23:02:00,
2013-08-02 17:12:00,67.0,21.0,-100.00,North,-999,-999.0,-999.0,17,-99.99,,,-99.99,,2013-08-02 23:12:00,
2013-08-02 17:22:00,66.0,21.0,-100.00,North,-999,-999.0,-999.0,18,-99.99,,,-99.99,,2013-08-02 23:22:00,
2013-08-02 17:32:00,66.0,21.0,-100.00,North,-999,-999.0,-999.0,18,-99.99,,,-99.99,,2013-08-02 23:32:00,
2013-08-02 17:43:00,67.0,24.0,-100.00,North,-999,-999.0,-999.0,19,-99.99,,,-99.99,,2013-08-02 23:43:00,
2013-08-02 17:53:00,67.0,24.0,-100.00,North,-999,-999.0,-999.0,19,-99.99,,,-99.99,,2013-08-02 23:53:00,
2013-08-02 18:02:00,67.0,27.0,-100.00,North,-999,-999.0,-999.0,22,-99.99,,,-99.99,,2013-08-03 00:02:00,
2013-08-02 18:12:00,67.0,27.0,-100.00,North,-999,-999.0,-999.0,22,-99.99,,,-99.99,,2013-08-03 00:12:00,
2013-08-02 18:22:00,67.0,25.0,-100.00,North,-999,-999.0,-999.0,20,-99.99,,,-99.99,,2013-08-03 00:22:00,
2013-08-02 18:32:00,67.0,25.0,-100.00,North,-999,-999.0,-999.0,20,-99.99,,,-99.99,,2013-08-03 00:32:00,
2013-08-02 18:43:00,67.0,25.0,-100.00,North,-999,-999.0,-999.0,20,-99.99,,,-99.99,,2013-08-03 00:43:00,
2013-08-02 18:52:00,67.0,27.0,-100.00,North,-999,-999.0,-999.0,22,-99.99,,,-99.99,,2013-08-03 00:52:00,
2013-08-02 19:12:00,67.0,25.0,-100.00,North,-999,-999.0,-999.0,20,-99.99,,,-99.99,,2013-08-03 01:12:00,
2013-08-02 19:22:00,67.0,26.0,-100.00,North,-999,-999.0,-999.0,20,-99.99,,,-99.99,,2013-08-03 01:22:00,
2013-08-02 19:32:00,67.0,26.0,-100.00,North,-999,-999.0,-999.0,20,-99.99,,,-99.99,,2013-08-03 01:32:00,
2013-08-02 19:42:00,66.0,26.0,-100.00,North,-999,-999.0,-999.0,21,-99.99,,,-99.99,,2013-08-03 01:42:00,
2013-08-02 19:53:00,66.0,26.0,-100.00,North,-999,-999.0,-999.0,21,-99.99,,,-99.99,,2013-08-03 01:53:00,
2013-08-02 20:02:00,66.0,26.0,-100.00,North,-999,-999.0,-999.0,22,-99.99,,,-99.99,,2013-08-03 02:02:00,
2013-08-02 20:12:00,66.0,26.0,-100.00,North,-999,-999.0,-999.0,22,-99.99,,,-99.99,,2013-08-03 02:12:00,
2013-08-02 20:22:00,64.0,25.0,-100.00,North,-999,-999.0,-999.0,22,-99.99,,,-99.99,,2013-08-03 02:22:00,
2013-08-02 20:32:00,64.0,25.0,-100.00,North,-999,-999.0,-999.0,22,-99.99,,,-99.99,,2013-08-03 02:32:00,
2013-08-02 20:43:00,63.0,25.0,-100.00,North,-999,-999.0,-999.0,23,-99.99,,,-99.99,,2013-08-03 02:43:00,
2013-08-02 20:52:00,63.0,25.0,-100.00,North,-999,-999.0,-999.0,23,-99.99,,,-99.99,,2013-08-03 02:52:00,
2013-08-02 21:02:00,63.0,25.0,-100.00,North,-999,-999.0,-999.0,23,-99.99,,,-99.99,,2013-08-03 03:02:00,
2013-08-02 21:22:00,62.0,25.0,-100.00,North,-999,-999.0,-999.0,24,-99.99,,,-99.99,,2013-08-03 03:22:00,
2013-08-02 21:32:00,62.0,25.0,-100.00,North,-999,-999.0,-999.0,24,-99.99,,,-99.99,,2013-08-03 03:32:00,
2013-08-02 21:43:00,62.0,25.0,-100.00,North,-999,-999.0,-999.0,24,-99.99,,,-99.99,,2013-08-03 03:43:00,
2013-08-02 21:53:00,62.0,25.0,-100.00,North,-999,-999.0,-999.0,24,-99.99,,,-99.99,,2013-08-03 03:53:00,
2013-08-02 22:02:00,63.0,26.0,-100.00,North,-999,-999.0,-999.0,25,-99.99,,,-99.99,,2013-08-03 04:02:00,
2013-08-02 22:12:00,63.0,26.0,-100.00,North,-999,-999.0,-999.0,25,-99.99,,,-99.99,,2013-08-03 04:12:00,
2013-08-02 22:22:00,62.0,27.0,-100.00,North,-999,-999.0,-999.0,25,-99.99,,,-99.99,,2013-08-03 04:22:00,
2013-08-02 22:32:00,62.0,27.0,-100.00,North,-999,-999.0,-999.0,25,-99.99,,,-99.99,,2013-08-03 04:32:00,
2013-08-02 22:53:00,62.0,27.0,-100.00,North,-999,-999.0,-999.0,26,-99.99,,,-99.99,,2013-08-03 04:53:00,
2013-08-02 23:22:00,61.0,27.0,-100.00,North,-999,-999.0,-999.0,27,-99.99,,,-99.99,,2013-08-03 05:22:00,
2013-08-02 23:32:00,61.0,27.0,-100.00,North,-999,-999.0,-999.0,27,-99.99,,,-99.99,,2013-08-03 05:32:00,
2013-08-02 23:52:00,62.0,26.0,-100.00,North,-999,-999.0,-999.0,24,-99.99,,,-99.99,,2013-08-03 05:52:00,